Погода в Боярке

Украина / Киевская область     50°19′40″N   30°17′31″E
темп.,
°C
ветер,
м/с
пор.,
м/с
влажн.,
%
обл.,
%
осадки,
мм/ч
давл.,
гПа
погр.,
м
4 августа, ср
ср400:00+16зюз22700 0.0 101717
03:00+14зюз23741 0.0 101723
06:00+14сз117564 0.0 101711
09:00+21св11545 0.0 1018346
12:00+25ююз233579 0.0 10171979
15:00+27ююз4434100 0.0 10162592
18:00+25ююз334489 0.0 1015810
21:00+18ююв3672100 0.1 101583
5 августа, чт
чт500:00+17з3486100 1.6 101775
03:00+17ююв4119071 3.7 1015256
06:00+15ююз3694100 0.0 1014126
09:00+21юз2475100 0.0 1013329
12:00+26ю455197 0.0 10121026
15:00+26ююз5753100 0.0 1011841
18:00+29ююз6747100 0.0 10092073
21:00+23юв466535 0.0 100783
6 августа, пт
пт600:00+21юв41169100 0.0 1006233
03:00+19ююз51290100 1.7 1007359
06:00+19юв41288100 0.1 1004325
09:00+23ю6137879 1.1 1005686
12:00+23ююз61174100 1.6 1005692
15:00+23ю61379100 3.6 1005844
18:00+21ююв348073 0.1 1005109
21:00+20ююв118898 1.5 100514
7 августа, сб
сб700:00+18зюз5897100 4.9 1007266
03:00+17сз359759 8.3 1007138
06:00+16сз479897 0.0 1008333
09:00+17сз568143 0.0 1009574
12:00+21зсз5659100 0.0 10101026
15:00+23сз565198 0.0 10111457
18:00+23сз565090 0.0 10111591
21:00+17сз35675 0.0 101366
8 августа, вс
вс800:00+15с22810 0.0 101428
03:00+13сз22850 0.0 101520
06:00+13сз22860 0.0 101613
09:00+19сз22610 0.0 1016399
12:00+24ссз23430 0.0 10161217
15:00+26сз33363 0.0 10151450
18:00+26сз334013 0.0 10161401
21:00+19ссз12600 0.0 101711